This demonstration page uses our WeatherBlox Daily Observations layout. Learn more.

Left ArrowRight Arrow

Hourly Observations for May 11, 2015

Temp ( °F °C ) Dew Point ( °F °C ) Humidity (%) Winds ( mph kmh ) Pressure ( in mb ) Visibility ( mi km ) Precip ( " mm )
12:53 am 00:53 Clear 40 4.4 31 -0.6 70 70 WNW 17 28 29.97 1015 10 16 0.00 0.00
1:40 am 01:40 Mostly Cloudy 39 4 30 -1 70 70 WNW 20 31 30.03 1017 10 16 0.00 0.00
1:53 am 01:53 Cloudy 40 4.4 31 -0.6 70 70 WNW 22 35 29.96 1015 10 16 0.00 0.00
2:36 am 02:36 Cloudy 41 5 30 -1 66 66 WNW 16 26 30.03 1017 10 16 0.00 0.00
2:53 am 02:53 Cloudy 41 5 31 -0.6 67 67 NW 21 33 29.96 1014 10 16 0.00 0.00
3:53 am 03:53 Mostly Cloudy 41 5 30 -1.1 65 65 WNW 22 35 29.94 1014 10 16 0.00 0.00
4:53 am 04:53 Cloudy 42 5.6 30 -1.1 62 62 NW 20 31 29.96 1015 10 16 0.00 0.00
5:53 am 05:53 Mostly Clear 40 4.4 30 -1.1 68 68 WNW 16 26 29.98 1015 10 16 0.00 0.00
6:53 am 06:53 Mostly Sunny 39 3.9 31 -0.6 73 73 WNW 13 20 29.97 1015 10 16 0.00 0.00
7:53 am 07:53 Cloudy 42 5.6 32 0 68 68 WNW 17 28 29.99 1016 10 16 0.00 0.00
8:53 am 08:53 Cloudy 45 7.2 32 0 61 61 WNW 28 44 30.00 1016 10 16 0.00 0.00
9:53 am 09:53 Cloudy 46 7.8 32 0 58 58 NW 23 37 30.02 1017 10 16 0.00 0.00
10:53 am 10:53 Cloudy 48 8.9 33 0.6 56 56 WNW 28 44 30.03 1017 10 16 0.00 0.00
11:53 am 11:53 Cloudy 50 10 33 0.6 52 52 WNW 28 44 30.04 1017 10 16 0.00 0.00
12:53 pm 12:53 Cloudy 51 10.6 33 0.6 50 50 WNW 24 39 30.04 1017 10 16 0.00 0.00
1:53 pm 13:53 Mostly Cloudy 53 11.7 33 0.6 47 47 NW 28 44 30.04 1017 10 16 0.00 0.00
2:53 pm 14:53 Cloudy 55 12.8 34 1.1 45 45 WNW 26 43 30.06 1018 10 16 0.00 0.00
3:53 pm 15:53 Cloudy 53 11.7 34 1.1 48 48 NW 28 44 30.08 1019 10 16 0.00 0.00
4:53 pm 16:53 Cloudy 53 11.7 34 1.1 48 48 NW 25 41 30.08 1019 10 16 0.00 0.00
5:53 pm 17:53 Cloudy 53 11.7 34 1.1 48 48 NW 25 41 30.11 1020 10 16 0.00 0.00
6:53 pm 18:53 Partly Cloudy 53 11.7 34 1.1 48 48 NNW 25 41 30.14 1021 10 16 0.00 0.00
7:53 pm 19:53 Mostly Cloudy 51 10.6 34 1.1 52 52 NW 17 28 30.16 1021 10 16 0.00 0.00
8:53 pm 20:53 Clear 47 8.3 33 0.6 59 59 NW 7 11 30.17 1022 10 16 0.00 0.00
9:53 pm 21:53 Clear 42 5.6 33 0.6 71 71 W 6 9 30.19 1022 10 16 0.00 0.00
10:53 pm 22:53 Clear 44 6.7 33 0.6 65 65 W 9 15 30.20 1023 10 16 0.00 0.00
11:53 pm 23:53 Clear 42 5.6 33 0.6 71 71 W 8 13 30.21 1023 10 16 0.00 0.00

Powered by AerisWeather